[[{"header":{"parameterUnit":"m.s-1","parameterCategory":1,"la1":30.2991,"la2":30.254,"lo1":-89.0895,"lo2":-89.0444,"dy":0.0017,"dx":0.0017,"nx":28,"ny":28,"refTime":"2023-11-07T03:00:00:Z","depth":0,"parameterNumber":2,"parameterNumberName":"U-component_of_WINDS"},"data":[0,0,0,0,0,0,0,0,0,0,0,0,0,0,0,0,0,0,0,0,0,0,0,0,0,0,0,0,0,0,0,0,0,0,0,0,0,0,0,0,0,0,0,0,0,0,0,0,0,0,0,0,0,0,0,0,0,0,-0.1138,-0.1138,0,-0.107,-0.1069,-0.1068,-0.1094,-0.1096,-0.1097,-0.1099,-0.1027,-0.1023,-0.102,0,0,0,0,0,0,0,0,0,0,0,0,0,-0.1292,-0.1289,-0.1139,-0.1138,-0.1137,-0.107,-0.1069,-0.1068,-0.1094,-0.1096,-0.1098,-0.11,-0.1028,-0.1024,-0.102,0,0,0,0,0,0,0,0,0,0,0,0,0,-0.1224,-0.1288,-0.1139,-0.1142,-0.1141,-0.107,-0.1069,-0.1068,-0.1094,-0.1096,-0.1098,-0.1101,-0.1029,-0.1024,-0.1019,-0.094,0,0,-0.1003,-0.1001,0,0,0,0,0,0,0,0,-0.1228,-0.1219,-0.1142,-0.1141,-0.1141,-0.1093,-0.1096,-0.1025,-0.1093,-0.1112,-0.1099,-0.1102,-0.1047,-0.104,-0.1022,-0.0936,-0.0933,-0.1003,-0.1,-0.0998,-0.0996,0,0,0,0,0,0,0,-0.1233,-0.1222,-0.1111,-0.1141,-0.114,-0.1146,-0.114,-0.1083,-0.1067,-0.111,-0.1112,-0.1104,-0.1047,-0.1027,-0.102,-0.0932,-0.1003,-0.0999,-0.0995,-0.0993,-0.0778,-0.0775,0,0,0,0,0,0,-0.1238,-0.1226,-0.1113,-0.1109,-0.1191,-0.1142,-0.1134,-0.1106,-0.1067,-0.1064,-0.1102,-0.1105,-0.1034,-0.1026,-0.1018,-0.0922,-0.0998,-0.0993,-0.099,-0.078,-0.0777,-0.0774,0,0,0,0,0,0,-0.1241,-0.1228,-0.1116,-0.1168,-0.1154,-0.1137,-0.1105,-0.1103,-0.1083,-0.1061,-0.1058,-0.1084,-0.1036,-0.1025,-0.0959,-0.092,-0.0991,-0.0986,-0.0784,-0.0779,-0.0776,-0.0729,0,0,0,0,0,0,-0.1246,-0.1229,-0.1198,-0.1167,-0.1151,-0.1058,-0.1103,-0.11,-0.1075,-0.1079,-0.1044,-0.104,-0.1037,-0.0967,-0.0954,-0.0914,-0.0982,-0.0787,-0.0782,-0.0777,-0.0734,-0.0724,-0.0715,0,0,0,0,0,-0.1251,-0.1188,-0.1197,-0.1183,-0.1113,-0.1056,-0.1047,-0.1045,-0.1072,-0.1041,-0.1026,-0.1041,-0.0927,-0.096,-0.0946,-0.0903,-0.0789,-0.0783,-0.0777,-0.0738,-0.0726,-0.0715,0,0,0,0,0,0,-0.1214,-0.1183,-0.1193,-0.1118,-0.1089,-0.106,-0.1021,-0.1032,-0.0995,-0.1,-0.0999,-0.0991,-0.0922,-0.0907,-0.0944,-0.0825,-0.0862,-0.0853,-0.0837,-0.0825,-0.0816,-0.082,-0.0978,0,0,0,0,0,-0.1197,-0.1154,-0.113,-0.1065,-0.1051,-0.1039,-0.1014,-0.1015,-0.0985,-0.0973,-0.0954,-0.0924,-0.0881,-0.0852,-0.0812,-0.0733,-0.0725,-0.0697,-0.0688,-0.068,-0.0671,-0.0628,-0.0614,-0.0755,-0.0755,-0.0755,0,0,-0.1162,-0.114,-0.1112,-0.1057,-0.1035,-0.099,-0.1028,-0.0978,-0.0944,-0.0965,-0.0901,-0.0886,-0.0853,-0.078,-0.0746,-0.0764,-0.0632,-0.0672,-0.0667,-0.0662,-0.062,-0.0607,-0.0595,-0.0751,-0.0751,-0.0752,0,0,-0.1073,-0.1053,-0.0997,-0.0974,-0.0941,-0.0934,-0.092,-0.089,-0.0881,-0.0817,-0.0832,-0.0792,-0.0718,-0.0694,-0.0671,-0.0576,-0.0588,-0.0563,-0.0513,-0.047,-0.0459,-0.0449,-0.0413,-0.0401,-0.0555,-0.0555,-0.0555,0,-0.1033,-0.0965,-0.0966,-0.0915,-0.089,-0.0909,-0.0852,-0.083,-0.0785,-0.0767,-0.0789,-0.0697,-0.0676,-0.0597,-0.0573,-0.0556,-0.054,-0.0565,-0.0461,-0.0451,-0.0442,-0.0407,-0.0394,-0.0552,-0.0552,-0.0552,-0.0553,0,-0.0916,-0.0869,-0.0828,-0.0784,-0.0755,-0.0702,-0.0695,-0.0665,-0.067,-0.066,-0.0595,-0.0571,-0.0525,-0.0508,-0.0511,-0.0429,-0.0441,-0.0462,-0.0499,-0.0425,-0.0393,-0.038,-0.0547,-0.0548,-0.0549,-0.055,0,0,-0.0799,-0.0759,-0.0743,-0.0724,-0.0689,-0.0653,-0.06,-0.0557,-0.0531,-0.05,-0.0455,-0.0393,-0.0412,-0.0387,-0.0389,-0.0352,-0.0276,-0.0377,-0.0376,-0.0357,-0.0182,-0.0165,-0.015,-0.0285,-0.0283,-0.0281,-0.0184,0,-0.0707,-0.0614,-0.0615,-0.0529,-0.0485,-0.0503,-0.0457,-0.0431,-0.0421,-0.0382,-0.0372,-0.0327,-0.0357,-0.0342,-0.0306,-0.0292,-0.024,-0.03,-0.0242,-0.0239,-0.0247,-0.0133,-0.0115,-0.0025,-0.0172,-0.017,-0.0168,0,-0.0585,-0.0551,-0.0461,-0.0433,-0.0414,-0.0373,-0.0333,-0.0296,-0.0267,-0.0263,-0.0236,-0.0243,-0.0189,-0.0231,-0.0156,-0.0197,-0.0173,-0.0163,-0.016,-0.0152,-0.0197,-0.012,0.0004,0.0018,-0.0149,-0.015,-0.0152,0,-0.0507,-0.0438,-0.0375,-0.0358,-0.0324,-0.0295,-0.0279,-0.0253,-0.0227,-0.0192,-0.0175,-0.0135,-0.0112,-0.0081,-0.0077,-0.0108,-0.0002,-0.0043,0.0005,0.0005,0.003,0.0029,0.0162,0.0041,0.0041,0.0041,0.004,0,-0.0401,-0.0345,-0.0339,-0.03,-0.0238,-0.024,-0.0178,-0.0165,-0.0142,-0.01,-0.0114,-0.0075,-0.0074,-0.0034,-0.0031,0.0031,0.0041,0.0047,0.0047,0.005,0.0049,0.0067,0.0062,0.0044,0.0043,0.0043,0.0042,0,-0.0302,-0.0296,-0.0228,-0.0203,-0.0195,-0.015,-0.0128,-0.009,-0.0083,-0.003,-0.0018,-0.0006,0.004,0.0046,0.01,0.0102,0.0177,0.017,0.0168,0.0168,0.0215,0.0212,0.0367,0.0388,0.0251,0.0252,0.0253,0,-0.0234,-0.0191,-0.0161,-0.0134,-0.0117,-0.0075,-0.0048,-0.0049,-0.0021,0.0015,0.0048,0.0092,0.0129,0.0203,0.0217,0.0259,0.0254,0.0305,0.026,0.0261,0.0257,0.0255,0.026,0.0315,0.0316,0.0317,0.0318,0,-0.0113,-0.0112,-0.0074,-0.0034,-0.0003,0.0028,0.0058,0.008,0.0083,0.0115,0.0162,0.019,0.0244,0.0289,0.033,0.0346,0.0333,0.0332,0.0345,0.035,0.0347,0.0351,0.0194,0.0329,0.0328,0.0327,0.0327,0.0326,-0.0025,0.0012,0.0039,0.0082,0.0104,0.0131,0.0168,0.0179,0.0218,0.0263,0.0259,0.0311,0.0338,0.0391,0.041,0.0451,0.0434,0.0453,0.0459,0.0464,0.047,0.0338,0.0458,0.0458,0.0457,0.0457,0.0457,0,0.0097,0.0113,0.0152,0.0193,0.0227,0.021,0.0241,0.0271,0.0317,0.0344,0.0379,0.0433,0.0476,0.0492,0.0535,0.0564,0.056,0.0576,0.0575,0.0579,0.0482,0.0467,0.0579,0.0579,0.0579,0.0579,0.0579,0.0579,0.0164,0.0227,0.0231,0.0304,0.0319,0.037,0.039,0.0415,0.0436,0.0497,0.0532,0.0542,0.0565,0.0608,0.0647,0.0651,0.0668,0.0687,0.0689,0.0598,0.0586,0.0574,0.056,0.069,0.069,0.0783,0.0784,0.0784]},{"header":{"parameterUnit":"m.s-1","parameterCategory":1,"la1":30.2991,"la2":30.254,"lo1":-89.0895,"lo2":-89.0444,"dy":0.0017,"dx":0.0017,"nx":28,"ny":28,"refTime":"2023-11-07T03:00:00:Z","depth":0,"parameterNumber":3,"parameterNumberName":"V-component_of_WINDS"},"data":[0,0,0,0,0,0,0,0,0,0,0,0,0,0,0,0,0,0,0,0,0,0,0,0,0,0,0,0,0,0,0,0,0,0,0,0,0,0,0,0,0,0,0,0,0,0,0,0,0,0,0,0,0,0,0,0,0,0,3.2906,3.2906,0,3.2897,3.2897,3.2897,3.285,3.2849,3.2848,3.2847,3.2838,3.2839,3.284,0,0,0,0,0,0,0,0,0,0,0,0,0,3.2883,3.2884,3.2906,3.2906,3.2906,3.2897,3.2897,3.2897,3.285,3.2849,3.2847,3.2846,3.2838,3.2839,3.284,0,0,0,0,0,0,0,0,0,0,0,0,0,3.2886,3.2884,3.2906,3.2881,3.2879,3.2897,3.2897,3.2897,3.285,3.2849,3.2847,3.2845,3.2837,3.2839,3.284,3.2881,0,0,3.2844,3.2844,0,0,0,0,0,0,0,0,3.2886,3.2887,3.2885,3.2883,3.2881,3.2873,3.2886,3.2891,3.2851,3.2861,3.2847,3.2845,3.2851,3.2851,3.2853,3.288,3.288,3.2844,3.2844,3.2845,3.2845,0,0,0,0,0,0,0,3.2886,3.2887,3.2902,3.2885,3.2882,3.2871,3.287,3.2887,3.2866,3.286,3.2857,3.2856,3.2849,3.2852,3.2852,3.288,3.2844,3.2845,3.2845,3.2846,3.2941,3.2943,0,0,0,0,0,0,3.2889,3.2887,3.2903,3.2902,3.2879,3.2873,3.2871,3.2877,3.2865,3.2862,3.2858,3.2854,3.2851,3.2851,3.2852,3.2899,3.2845,3.2846,3.2847,3.2939,3.2941,3.2943,0,0,0,0,0,0,3.2888,3.2891,3.2903,3.2894,3.2894,3.2875,3.2882,3.2878,3.288,3.2864,3.286,3.2864,3.2849,3.285,3.2874,3.2898,3.2847,3.2848,3.2937,3.294,3.2942,3.2994,0,0,0,0,0,0,3.2888,3.2891,3.2906,3.2894,3.2895,3.2925,3.2884,3.2879,3.2882,3.2878,3.2868,3.2865,3.2848,3.2872,3.2875,3.2899,3.2849,3.2935,3.2938,3.2941,3.299,3.2998,3.3005,0,0,0,0,0,3.2887,3.2921,3.2907,3.2909,3.2914,3.2927,3.2927,3.2906,3.2885,3.29,3.2889,3.2866,3.2895,3.2875,3.2878,3.2902,3.2933,3.2937,3.2941,3.2987,3.2997,3.3005,0,0,0,0,0,0,3.2936,3.2919,3.2903,3.2934,3.2932,3.2919,3.2937,3.2918,3.2922,3.2917,3.2892,3.289,3.2918,3.2912,3.289,3.2942,3.291,3.2915,3.2944,3.2953,3.2961,3.2961,3.285,0,0,0,0,0,3.2951,3.2963,3.2947,3.2976,3.2976,3.2957,3.2962,3.2946,3.2943,3.2942,3.2933,3.2931,3.294,3.2946,3.2954,3.2989,3.2987,3.3008,3.3015,3.3021,3.3026,3.3044,3.3053,3.2956,3.2956,3.2956,0,0,3.298,3.2973,3.2982,3.2985,3.2982,3.2995,3.2956,3.2972,3.2981,3.2944,3.2966,3.296,3.2956,3.2986,3.2999,3.2982,3.3052,3.3026,3.3032,3.3032,3.3049,3.3058,3.3067,3.2959,3.2959,3.2958,0,0,3.3041,3.3037,3.306,3.3057,3.3053,3.304,3.3046,3.3036,3.303,3.3051,3.3024,3.3035,3.3051,3.3049,3.305,3.3111,3.309,3.3115,3.3154,3.3172,3.318,3.3186,3.3208,3.3216,3.3119,3.3119,3.3119,0,3.3079,3.3097,3.3075,3.3092,3.3094,3.3062,3.3085,3.3084,3.3082,3.3085,3.3067,3.3086,3.3081,3.311,3.3125,3.3127,3.3133,3.3115,3.318,3.3187,3.3193,3.3213,3.3221,3.3122,3.3122,3.3121,3.3121,0,3.3144,3.3157,3.3176,3.3175,3.318,3.32,3.3181,3.3189,3.3173,3.3162,3.3185,3.3178,3.3183,3.3189,3.3174,3.3216,3.3206,3.3185,3.3152,3.3205,3.3224,3.3231,3.3126,3.3125,3.3124,3.3124,0,0,3.3234,3.3221,3.3228,3.3227,3.322,3.323,3.3249,3.3254,3.3261,3.3261,3.3277,3.3291,3.3271,3.3273,3.3257,3.3273,3.3322,3.325,3.3249,3.3263,3.3368,3.3384,3.3394,3.3308,3.3309,3.331,3.3368,0,3.3292,3.3324,3.3304,3.3339,3.3351,3.332,3.3337,3.3334,3.3325,3.3334,3.3324,3.3335,3.3308,3.3308,3.3323,3.3313,3.3343,3.3308,3.3322,3.3323,3.3323,3.3403,3.342,3.3475,3.3376,3.3377,3.3378,0,3.3364,3.3367,3.3403,3.3393,3.3398,3.3413,3.3416,3.3425,3.3422,3.3414,3.3416,3.3397,3.3415,3.3383,3.3408,3.3386,3.339,3.3386,3.3388,3.3388,3.3353,3.3405,3.3492,3.3501,3.3389,3.3388,3.3387,0,3.3427,3.344,3.3463,3.3463,3.3453,3.3464,3.346,3.3455,3.346,3.3463,3.3465,3.3471,3.3473,3.3478,3.346,3.3439,3.3488,3.3455,3.3482,3.3482,3.3493,3.3493,3.3582,3.3497,3.3497,3.3496,3.3496,0,3.3493,3.3516,3.3491,3.3505,3.353,3.3507,3.3533,3.3526,3.3522,3.3534,3.3508,3.3521,3.3497,3.3507,3.3493,3.3516,3.3518,3.3512,3.3508,3.3514,3.3515,3.3516,3.3512,3.3499,3.3498,3.3498,3.3497,0,3.3567,3.3551,3.3574,3.3562,3.356,3.3579,3.3569,3.3582,3.3571,3.3587,3.3589,3.3573,3.3583,3.3566,3.3575,3.3565,3.3597,3.3587,3.3598,3.3595,3.3623,3.3621,3.3716,3.3727,3.3635,3.3636,3.3637,0,3.361,3.3627,3.3618,3.3624,3.3622,3.3632,3.3637,3.3615,3.3621,3.3619,3.3632,3.364,3.3646,3.3664,3.3653,3.3659,3.3649,3.3682,3.365,3.3656,3.3649,3.3649,3.365,3.3689,3.369,3.3691,3.3691,0,3.3689,3.368,3.3687,3.3692,3.3698,3.37,3.3701,3.3708,3.3686,3.3693,3.3703,3.3708,3.3716,3.3725,3.3729,3.3725,3.3705,3.3702,3.3708,3.3715,3.372,3.3717,3.3616,3.37,3.3699,3.3698,3.3698,3.3697,3.3749,3.3763,3.3758,3.3767,3.3765,3.3766,3.3778,3.3768,3.3777,3.3782,3.3769,3.3782,3.3779,3.3782,3.378,3.3791,3.3776,3.3786,3.3788,3.3791,3.3795,3.3719,3.3791,3.3791,3.3791,3.3791,3.3791,0,3.3826,3.3822,3.383,3.3832,3.3839,3.3819,3.3819,3.3826,3.3838,3.3837,3.3843,3.3855,3.3863,3.3853,3.3859,3.3869,3.386,3.3872,3.3871,3.387,3.3808,3.3801,3.3879,3.3879,3.3879,3.3879,3.3879,3.3879,3.3867,3.3889,3.388,3.3901,3.3897,3.3909,3.3911,3.3912,3.3911,3.3925,3.3932,3.3925,3.392,3.3926,3.3933,3.3929,3.3933,3.3948,3.3941,3.3883,3.3875,3.3866,3.386,3.3949,3.3949,3.4003,3.4003,3.4004]}]]